Provo, UT

11:00 AM MST on November 20, 2019 (GMT -0700)
Provo Municipal

Weather History for KPVU - September, 2019

Change the Weather History Date:

Saturday, September 14, 2019

  Actual Average Record
Temperature  
Mean Temperature 68 °F -  
Max Temperature 88 °F 75 °F 95 °F (1990)
Min Temperature 48 °F 48 °F 35 °F (2003)
Cooling Degree Days 3    
Growing Degree Days 18 (Base 50)    
Moisture  
Dew Point 42 °F    
Average Humidity 46    
Maximum Humidity 80    
Minimum Humidity 12    
Precipitation  
Precipitation 0.00 in - - ()
Sea Level Pressure  
Sea Level Pressure 30.08 in    
Wind  
Wind Speed 3 mph (South)    
Max Wind Speed 15 mph    
Max Gust Speed -    
Visibility 10 miles    
Events      
Averages and records for this station are not official NWS values.
T = Trace of Precipitation, MM = Missing Value Source: NWS Daily Summary

Daily Weather History Graph

Daily Weather History Graph

Search for Another Location

Airport or City:

Astronomy

Sep. 14, 2019 Rise Set
Actual Time 7:06 AM MDT 7:37 PM MDT
Civil Twilight 6:39 AM MDT 8:04 PM MDT
Nautical Twilight 6:07 AM MDT 8:36 PM MDT
Astronomical Twilight 5:34 AM MDT 9:09 PM MDT
Moon 8:20 PM MDT (9/14) 7:23 AM MDT (9/14)
Length of Visible Light 13h 25m
Length of Day
12h 30m
Full, 100% of the Moon is Illuminated
Sep 14
Full
Sep 21
Last Quarter
Sep 28
New
Oct 5
First Quarter
Oct 13
Full

Hourly Weather History & Observations

Time (MDT) Temp. Dew Point Humidity Pressure Visibility Wind Dir Wind Speed Gust Speed Precip Events Conditions
12:56 AM 57.9 °F 46.9 °F 67% 30.12 in 10.0 mi Calm Calm - N/A   Clear
1:56 AM 55.0 °F 46.0 °F 72% 30.14 in 10.0 mi Calm Calm - N/A   Clear
2:56 AM 55.9 °F 46.0 °F 69% 30.12 in 10.0 mi SSW 6.9 mph - N/A   Clear
3:56 AM 55.0 °F 42.1 °F 62% 30.11 in 10.0 mi Variable 3.5 mph - N/A   Clear
4:56 AM 48.9 °F 43.0 °F 80% 30.14 in 10.0 mi Variable 3.5 mph - N/A   Clear
5:56 AM 54.0 °F 39.0 °F 57% 30.12 in 10.0 mi South 15.0 mph - N/A   Clear
6:56 AM 52.0 °F 43.0 °F 71% 30.14 in 10.0 mi Calm Calm - N/A   Clear
7:56 AM 50.0 °F 43.0 °F 77% 30.18 in 10.0 mi SSE 4.6 mph - N/A   Clear
8:56 AM 57.9 °F 44.1 °F 60% 30.17 in 10.0 mi East 4.6 mph - N/A   Clear
9:56 AM 63.0 °F 39.0 °F 41% 30.17 in 10.0 mi Calm Calm - N/A   Clear
10:56 AM 64.9 °F 46.0 °F 50% 30.16 in 10.0 mi West 6.9 mph - N/A   Clear
11:56 AM 69.1 °F 45.0 °F 42% 30.14 in 10.0 mi West 4.6 mph - N/A   Clear
12:56 PM 73.0 °F 37.9 °F 28% 30.12 in 9.0 mi Variable 3.5 mph - N/A   Clear
12:57 PM 73.0 °F 37.9 °F 28% 30.12 in 10.0 mi Variable 3.5 mph - N/A   Clear
1:56 PM 78.1 °F 45.0 °F 31% 30.08 in 10.0 mi WSW 4.6 mph - N/A   Clear
2:56 PM 82.9 °F 41.0 °F 23% 30.03 in 10.0 mi WSW 3.5 mph - N/A   Clear
3:56 PM 84.0 °F 39.9 °F 21% 30.00 in 10.0 mi ESE 4.6 mph - N/A   Clear
4:56 PM 88.0 °F 30.0 °F 12% 29.98 in 10.0 mi ESE 3.5 mph - N/A   Clear
5:56 PM 87.1 °F 30.9 °F 13% 29.96 in 10.0 mi Calm Calm - N/A   Clear
6:56 PM 84.0 °F 36.0 °F 18% 29.96 in 10.0 mi ESE 5.8 mph - N/A   Clear
7:56 PM 73.9 °F 46.9 °F 38% 29.98 in 10.0 mi ENE 3.5 mph - N/A   Clear
8:56 PM 66.0 °F 46.9 °F 50% 29.99 in 10.0 mi SSE 5.8 mph - N/A   Clear
9:56 PM 62.1 °F 45.0 °F 53% 30.00 in 10.0 mi SSE 5.8 mph - N/A   Clear
10:56 PM 63.0 °F 43.0 °F 48% 29.99 in 10.0 mi Calm Calm - N/A   Clear
11:56 PM 64.9 °F 39.9 °F 40% 29.98 in 10.0 mi WNW 4.6 mph - N/A   Clear